dimanche 1 Fév 15
09 : 30

cazal« Les courses de Cazals »  organisées par l’ association Macadam 46.

Le parcours est une boucle de 10 km qui emprunte les sentiers vallonnés de la campagne environnante.

Un trail de 18 km complétera l’offre de cette organisation très conviviale.

Une marche de 10 km est également organisée.

Pensez à réservez votre repas très tôt car il n’y a que 200 places. Et le repas vaut le déplacement (même de Corrèze!).






Informations :

anninscverif
Inscription en ligne arrétée le 31/01/2015 à 20:00
ClDosNomVoirTempsS.Cat.CC.Club-
11407FUALDES TEDDY00:33:58 MSE1TEAM 12
21389RODRIGUES Alexis00:34:09 MV11
31337JOUCLAS Pierre00:35:00 MSE2
41350BATUT Jean Christophe00:35:01 MSE3TEAM 12
51216FERREIRA Manuel00:35:29 MV12STADE MONTOIS ATHLETISME
61394HAMON Christophe00:35:39 MSE4
71312PRADELOU Gregory00:35:57 MV13CO-KM 42 ST JUST LE MARTEL
81297DOURNES Julien00:37:26 MSE5
91256BLAMPAIN Lionel00:38:04 MV14ES THAON
101306LASSALE Julien00:38:21 MSE6
111362MONTEIRO Augustin00:38:25 MV15AC GIGOUZAC SAINT GERMAIN
121290BALDY Jean marc00:38:46 MV21
131434GOUX Nicolas00:40:09 MSE7
141315VIBOUD William00:40:25 MSE8
151373SONSON Thierry00:40:29 MV16union sportive tonneins athlet
161243LE LAY Paul00:40:51 MV22AC GIGOUZAC SAINT GERMAIN
171263BOUQUILLON Josuald00:41:03 MSE9STADE VILLENEUVE/LOT
181232SOLEILHAVOUP Patrick00:41:07 MV23
191228CUNY Laurent00:41:37 MSE104 REGIMENT ETRANGER
201391ZEMOULI Ahmed00:41:48 MSE11CA BELVES
211231PATERNE Michel00:41:52 MV24THALES
221206TRICAUD Yves00:42:11 MV31CA PLASSAC 16
231318BRECHET Claude00:42:13 MV17
241217MAYONNADE Christine00:42:24 FV11STADE LANGONNAIS ATHLETISM
251326BRUGALIERES Jordan00:42:52 MSE12
261272RESSEGUIER Adrien00:43:01 MJU1AC GIGOUZAC SAINT GERMAIN
271208ALQUIER Michel00:43:05 MSE13
281209DEBAISIEUX MICHEL00:43:11 MV32TEAM 12
291321IMBERT Pierre00:43:13 MV25
301411DAROT Laurent00:43:18 MSE14
311273RESSEGUIER Mariam00:43:20 FV12AC GIGOUZAC SAINT GERMAIN
321298DUBARLE Herve00:43:35 MV26
331358GALTIE Valerie00:43:48 FV13AC GIGOUZAC SAINT GERMAIN
341359GALTIE Laurent00:43:48 MV18AC GIGOUZAC SAINT GERMAIN
351267KERBOUL Adrien00:43:59 MSE15
361334DELANIS Wesley00:44:05 MSE16
371409CARDUSO Francis00:44:07 MV19
381316ZANETTI Patrick00:44:12 MV27
391423MITEV Pierre00:44:37 MV28EXTRAPEDESTRES
401357BERTRAND Guillaume00:44:53 MSE17
411331PETIT Pierre00:44:55 MV29EXTRAPEDESTRES
421280COUDERC Laurent00:45:18 MSE18
431224TEULIERES Jean marc00:45:20 MV33EXTRAPEDESTRES
441399BARDET Michel00:45:26 MV210SAINT-CERE ATHLETISME CLUB
451277NODARI Sebastien00:45:27 MV110
461426PRADIE Aurelien00:45:27 MSE19
471314TERROU Andre00:45:30 MV111
481400VIGUIE Vincent00:45:30 MV112
491416RIGAL Jean baptiste00:45:31 MCA1
501218ARMENGOL Patrice00:45:31 MV113AC GIGOUZAC SAINT GERMAIN
511412BORDES Christophe00:45:33 MSE20
521320LE TALLEC Herve00:45:34 MV211
531329BUFFET Gerard00:46:00 MV34
541291BELHADJ Mustapha00:46:05 MV114
551304JARQUE Christophe00:46:11 MV115
561413MARCHIER Alain00:46:15 MV35
571327FEDRIGO Christian00:46:26 MV116
581245LAFON Vincent00:46:31 MV117
591340BERNADOU David00:46:35 MV118
601332BONNERY Guillaume00:46:45 MSE21
611308MARTHON Jean-luc00:46:48 MV212
621328LEBRET Pascal00:46:56 MV119
631387BRUSQUAND MARIE-CHRISTINE00:47:00 FV14E PERIGUEUX SARLAT TRELISSAC A
641335REY BERNABEU Axel00:47:03 MSE22
651300EVES Alison00:47:08 FV21CA CAUSSADE
661345ESPINASSEAU Gerard00:47:11 MV36
671252DEGUILHEM Christiane00:47:15 FV31ASPTT
681360MACOMBE Paul00:47:18 MV213
691281PAULOS Jose00:47:24 MV120
701397ROUGIE JEROME00:47:27 MV121SAINT-CERE ATHLETISME CLUB
711264AUSSENAC Gilbert00:47:27 MV37CA BALMA
721379BERTHIER Stephane00:47:38 MV122
731363MAINDRON Christophe00:47:45 MSE23
741341COLMAGRO REGINE00:47:50 FV22CAHORS A
751424CAUMONT Christian00:47:56 MV214
761429GARIGUE Jerome00:47:58 MSE24
771375FAILLE Bernard00:48:10 MV215
781311POIRET Lionel00:48:11 MSE25
791346THOMAS Francis00:48:16 MV38
801382GAUTIER Thomas00:48:24 MES1
811342ROUDAYRE Christian00:48:38 MV39EXTRAPEDESTRES
821380LE GALL PATRICK00:48:52 MV123BERGERAC ATHLETIQUE CLUB
831239SANCHEZ Philippe00:48:54 MV216CABECOUS RUNNERS
841415SABARDEIL CHRISTINE00:48:56 FV15
851323VINGES Jean claude00:48:58 MV217
861377SIMONEAU Gilbert00:49:04 MV310
871361AMAT Francis00:49:06 MV218
881417MENESES Frederic00:49:10 MSE26
891287PAYROT Jocelyne00:49:18 FV23
901428BARON Pierre00:49:37 MV124
911227DUPUY Francois00:49:39 MSE27
921386CESSAC Christophe00:49:43 MV125
931253DUPPI Pascal00:49:50 MV126MONFLANQUIN ATHLETIC CLUB
941336DEBAISIEUX JOELLE00:49:52 FV16TEAM 12
951204SUAREZ Guy00:50:02 MV311AC GIGOUZAC SAINT GERMAIN
961303GIBERT Philippe00:50:24 MV127
971351LE BORGNE David00:50:40 MV128CABECOUS RUNNERS
981385GRANIOU Jean pierre00:50:55 MV312
991322MALMON Michel00:50:59 MV219
1001427TREFEIL OLIVIER00:51:07 MV220CA BELVES
1011279CIECKA Jean luc00:51:13 MV129
1021368CRASSAT Henry-jean00:51:13 MV221ACBVL
1031250JULIA Thierry00:51:17 MV222
1041364MAURIE Christian00:51:26 MV313
1051338CHEDAL Melanie00:51:30 FV17
1061420DELFAU Severine00:51:44 FV18
1071221ROYO Michel00:51:52 MV314AC FUMEL
1081271SOUAIDY Laurent00:52:02 MSE28
1091410ZUBIC Dragan00:52:07 MV223
1101356DENIS Didier00:52:12 MV224
1111268PHILIBERT Emmanuelle00:52:15 FSE1
1121270PAULO Daniel00:52:15 MSE29
1131211CARLADOUS Lauent00:52:25 MV130
1141241FREYSSENGE Stephane00:52:39 MV131
1151339BERNADOU Christelle00:52:41 FV19
1161276FAUSSER Nadine00:52:45 FV32EXTRAPEDESTRES
1171266KERBOUL Genevieve00:52:50 FSE2
1181202DUTHEIL Christiane00:52:52 FV24
1191398ROUGIE KATIA00:53:09 FSE3SAINT-CERE ATHLETISME CLUB
1201293CALMETTES Carine00:53:13 FSE4
1211376VINSONNEAU Lucien00:53:32 MV41
1221433BORNE Geoffrey00:53:37 MV132
1231381GAUTIER Alain00:53:40 MV225
1241414PERIE X00:53:40 MV226
1251367BOURHOVEN Roger00:53:41 MV133
1261325RIVET Agnes00:53:42 FSE5
1271251DAJEAN Yves00:53:43 MV42
1281302GENNESON Corinne00:53:46 FV25
1291284LIOT Didier00:54:10 MV315AC FUMEL
1301201PAVARD Ghislaine00:54:21 FV26AC GIGOUZAC SAINT GERMAIN
1311299DUBUS Marie00:54:28 FSE6CA BELVES
1321405PIECOURT Julien00:54:32 MSE30
1331288HICHARD Laurent00:54:34 MV134
1341408MEDAN Jean pierre00:54:49 MV316
1351242LACOMBE Francoise00:55:00 FV27
1361265CHARMETANT Leslie00:55:10 FSE7
1371313SABATIE Pascale00:55:10 FV28
1381289HALO Jean pierre00:55:15 MV227
1391247GLORIAN Jean michel00:55:25 MSE31
1401282SOULAYRES DOMINIQUE-AMELI00:55:27 FV29AC GIGOUZAC SAINT GERMAIN
1411212AVELINE Raymond00:55:29 MV317MACADAM 46
1421355DENIS Julien00:55:46 MCA2
1431275VITRAC Nicole00:55:57 FV210AC GIGOUZAC SAINT GERMAIN
1441274BACH Sylvie00:55:57 FV211AC GIGOUZAC SAINT GERMAIN
1451401CERTHOUX Michel00:55:57 MV318AC GIGOUZAC SAINT GERMAIN
1461255DENEFELD Martine00:56:20 FV33
1471383GONCALVES Laetitia00:56:23 FSE8
1481419CALMEIL Bertrand00:56:27 MV135
1491324STRIEVI Charlotte00:56:28 FSE9
1501305LAJAUD Melanie00:56:35 FSE10
1511393MARSAUD Lionel00:56:43 MSE32
1521210KIMMEL Jean philippe00:56:51 MV228
1531378BOUYGUES Carine00:56:52 FSE11
1541203GARRIC Francine00:56:56 FV34COURIR FONSEGRIVES
1551402NOEL Claudine00:57:00 FV212CAHORS A
1561388COUDERC Alain00:57:04 MV319S/L PERIGORD NOIR A
1571213PRADINES-DELMAS Annie00:57:12 FV110
1581354SALVAT Therese00:57:16 FV213EXTRAPEDESTRES
1591431MALBEC Laurent00:57:17 MV136
1601261BEGAUD Jack00:57:31 MV320
1611296CROUZAT Céline00:58:06 FSE12
1621333CASSAGNE Marie00:58:28 FSE13
1631370LAGRANGE David00:58:29 MSE33
1641348POLIAUTRE Christelle00:58:44 FV111
1651246FOISSAC Celine00:58:44 FSE14
1661422PETIT Stella00:58:53 FJU1
1671372ROQUES Patrick00:58:56 MV229
1681366AZEMARD Annette00:58:56 FV112
1691352FRADIN Alain00:59:06 MV321
1701343ROUDAYRE Elisabeth00:59:13 FV214
1711430PIRIS Isabelle00:59:29 FV113
1721292BUISSON Noel00:59:29 MSE34
1731260TURBAN Gilles00:59:29 MV230
1741371PIDOUX Sylvie00:59:44 FSE15CA BELVES
1751317ZEAU Marie-hélène00:59:51 FV114
1761307LEOCADIO Sandrine01:00:08 FSE16
1771215CONQUET Serge01:00:21 MV231
1781238LAGANNE Jacques01:00:28 MV322
1791403VALET Christian01:00:48 MV43
1801283BRANCO Eliane01:01:00 FV215
1811432MARESCASSIER Joel01:01:05 MSE35
1821395SKENA Bastien01:01:29 MJU2
1831392GERVEAU Gerard01:01:34 MV323
1841369CROUZET Pascal01:01:41 MV232
1851278BRARD Emilie01:02:02 FSE17
1861223CLARENC Joel01:02:13 MV233
1871396CAMINADE Patrick01:02:26 MV234
1881347MORENO Mattieu01:03:01 MSE36
1891225SIROT Michel01:03:05 MV44AC GIGOUZAC SAINT GERMAIN
1901219CESSAC Caroline01:03:28 FV216
1911207GARRIC Laurence01:03:36 FV115
1921286CATOR Julie01:03:49 FV217
1931205SUAREZ Jocelyne01:04:11 FV218AC GIGOUZAC SAINT GERMAIN
1941229MILES Caroline01:05:12 FV116
1951240GAUSSON Gerard01:05:14 MV324
1961319MAZEYRIE Francis01:06:18 MV235
1971230CHAUD Sylvie01:06:32 FV219
1981309MATEU Estelle01:06:55 FV117
1991310MATEU Philippe01:06:55 MV137
2001301FONTENAY Eric01:06:57 MV236
2011295COLAS Sylvie01:06:58 FV118
2021353TRUDGETT Didier01:06:59 MV325AC GIGOUZAC SAINT GERMAIN
2031214DELMAS Charly01:07:19 MES2
2041384GUEDES Chloe01:07:38 FSE18
2051244LAEDERICH Maureen01:08:02 FJU2
2061418BARRET Agathe01:08:05 FJU3
2071421PETIT Catherine01:08:15 FV119
2081365ALBRAND Bruno01:08:35 MV237
2091349PELATAN Isabelle01:09:12 FV120
2101226DESMONS Marie ange01:09:26 FV220
2111404VARGUES Jean-François01:09:41 MV326
2121220VIDAL Bernard01:10:24 MV45EXTRAPEDESTRES
2131222JACQUELET Jean marie01:10:36 MV327EXTRAPEDESTRES
2141262BEGAUD Marie01:12:00 FV121
2151254RENAUDIN Eliane01:14:07 FV41AC GIGOUZAC SAINT GERMAIN
2161425MERVILLE Maxime01:15:22 MSE37
2171237DAVID Yves01:16:59 MV46
2181249SOULIE Josiane01:16:59 FV35AC GIGOUZAC SAINT GERMAIN
2191390BONNET Marthe01:16:59 FV42


21 Comments.

  • fausser nadine says:

    beaux parcours et félicitations aux organisateurs ,
    à l’année prochaine

  • lecocq says:

    Bonjour,
    Je n’avais pas laissé mon adresse mail, mais je tenais à vous envoyer un petit message de soutien.
    La course était parfaite, très bien balisée, très jolie, très bien récompensée. La tombola a été très appréciée, même si je n’ai pas été tirée au sort.
    Très bonne ambiance et l’apéro tout aussi agréable.
    Bref nous reviendrons avec plaisir l’an prochain si notre calendrier s’y prête…
    Et bien sûr, bravo à tous les bénévoles qu’il est impossible de remercier directement, mais sans qui rien ne serait!!!
    Sportivement
    Karine Lecocq

  • lecocq says:

    Bonjour,
    Je n’avais pas laissé mon adresse mail, mais je tenais à faire un petit commentaire sur votre course.
    L’organisation était parfaite, la course très bien récompensée, la tombola très appréciée (même si je n’ai pas été tirée au sort) et l’ ambiance très sympathique.
    Nous sommes venus de Dordogne sur les conseils d’un ami et nous reviendrons avec plaisir l’an prochain si notre calendrier s’y prête!!!
    Et bien sûr, merci à tous les bénévoles qu’il est impossible de remercier directement, mais sans qui rien ne serait…
    Sportivement
    K. Lecocq

  • R Garric says:

    Merci aux organisateurs et bénévoles sans qui nous ne pourrions réaliser notre sport favori.
    Super journée en votre compagnie

  • LEBRET Pascal says:

    Super organisation, un parcours sympa car mélange de route et chemin, du dénivelé mais pas trop : compromis presque parfait.
    Merci à tous ceux qui ont participer à la préparation et au bon déroulement de cette course !

  • Ciecka says:

    Course et marche sympathiques et repas délicieux. Merci à tous les organisateurs pour leur dynamisme et leur disponibilité.

  • GARCIA Jean-Pierre says:

    Très bonne organisation et très beau parcours dans les bois et les chemins. Félicitations aux organisateurs et à l’ensemble des bénévoles.

  • SALVAT says:

    Bonjour,

    Félicitations à toute l’équipe de Macadam 46. Je confirme, la course de Cazals est un rendez-vous INCONTOURNABLE !

    L’acceuil des organisateurs, l’organisation de la remise des dossards à la remise des prix, les récompenses, les dégustations d’ huitres et de foie gras, sans oublier le copieux repas … Tout est parfait !
    Malgré le froid, le vent, la neige parfois, on retrouve à Cazals une chaleur amicale.
    Encore Bravo !

  • Julien Piecourt says:

    Très bien
    Supef la réception apres !!!!
    La tombola vraiment bien et de beaux lots
    Chronometrages avec resultats treds tres rapide
    Bref super continuez ds cette optique c est super

  • LACOMBE Françoise says:

    Bonne organisation et accueil chaleureux !! Continuez ainsi !

  • Marchier Alain says:

    Bravo

  • Marchier Alain says:

    Encore bravo pour cette manifestation: Comme les autres années rien à dire; une des meilleures courses pédestre que j’ai pu faire dans la région. Une remise de prix exemplaire ou beaucoup d’organisateurs devraient s’inspirer. Je ne peux que féliciter les organisateurs et les sponsors pour que cette épreuve dure et se perpétue et j’invite les nombreux coureurs qui ne connaissent pas les courses de Cazals à venir participer. Et de plus, ne pas oublier l’apéro avec les huitres, foie gras et jambon braisé accompagné par le Tariqué sec

  • vinges jean claude says:

    Excellente organisation!!!bravo et félicitation à tous!!!Super ambiance!!!!
    Et pour sur je reviens l’année prochaine!!!

  • OLIVIER says:

    Bravo , très bonne organisation ……parcours très bon …a l’année prochaine

  • glorian says:

    10 km sympa par contre un effort doit etre fait pour le 10 km marche : un classement et aussi une arrivée comme les autres courses

  • Blampain says:

    Parcours pas spécialement pour un chrono, nous le savions, Martine avec qui je vais faire le marathon de Trèvise le 1er mars prochain. La montée était assez longue, il a fallut gérer pour après pouvoir dérouler, se faire plaisir.
    A refaire avec le repas si possible; attendre peut-être le passage dans la catégorie (proche) supérieure pour mieux figurer.
    Merci pour l’accueil.

    Lionel

    • DENEFELD Martine says:

      Merci pour cette belle journée, merci aux organisateurs, c’est rare de trouver des aprés courses aussi conviviales, je reviendrai bien sur, pour une fois que la gente féminine V3 était représentée.
      Une subgestion il faut remplacer la coupe et le sac par une bouteille de Cahors, enfin ce produit local est sans aucune mesure bien plus agréable !!!!

  • pradines/delmas says:

    SUPER TRES BON MOMENT NOUS REVIENDRONS MERCI
    PETIT BEMOL PAS TROUVE DE DOUCHES POUR LES FEMMES DOMMAGE…

  • Tricaud says:

    Très belle organisation, tout es parfait dans ce beau village du lot …et la Mique pour couronner le tout est excellente et serviie sans attendre!
    Bravo à toutes et tous!
    Dommage pour le tirage au sort ,!c’est moi le charentais qui a gagné le gros lot, mais j’étais sous la douche et on n’a pas attendu que j’en sorte pour me laisser le lot qui est alors parti vers quelqu’un d’autre….rageant mais ça a profité à quelqu’un d’autre alors tant mieux !
    Très sprtivement,
    Yves Tricaud

  • delanis says:

    Vraiment sympa et rapide le mail pour nous informer de notre résultat!

  • Poiret says:

    Très bonne organisation. Ambiance sympathique, et le parcours des 10km était TOP !! A l’année prochaine 🙂




Le resenti (3 choix possibles)

Loading ... Loading ...

Le parcours (4 choix possibles)

Loading ... Loading ...

Ravitaillement (3 choix possibles)

Loading ... Loading ...

Les récompenses (3 choix possibles)

Loading ... Loading ...

La météo (2 choix possibles)

Loading ... Loading ...